Home   Weather   Kinshasa   Past weeks

Flag for Congo Dem. Rep. Past Weather in Kinshasa, Congo Dem. Rep. — Yesterday and Last 2 Weeks

Now
91 °F

Scattered clouds.


Feels Like: 100 °F
Forecast: 74 / 79 °F
Wind: 8 mph from Southwest

Location: Brazzaville / Maya-Maya

Current Time: Jan 22, 2017 at 3:25:02 pm

Latest Report: Jan 22, 2017 at 2:00 pm


Visibility: N/A

Pressure: 29.77 "Hg

Humidity: 56%

Dew Point: 73 °F

Location of KinshasaLocation

Past Weather in Kinshasa — Graph

°F

Kinshasa Temperature Yesterday

Maximum temperature yesterday: 88 °F (at 2:00 pm)
Minimum temperature yesterday: 75 °F (at 4:00 am)
Average temperature yesterday: 81 °F

High & Low Weather Summary for the Past Weeks

 TemperatureHumidityPressure
High93 °F (Jan 15, 2:00 pm)100% (Jan 14, 5:00 am)30.01 "Hg (Jan 14, 5:00 am)
Low70 °F (Jan 17, 12:00 am)52% (Jan 20, 1:00 pm)29.71 "Hg (Jan 10, 5:00 pm)
Average80 °F79%29.85 "Hg
* Reported Jan 7 2:00 pm — Jan 22 2:00 pm, Kinshasa, Weather by CustomWeather, © 2017

Note: Actual official high and low records may vary slightly from our data, if they occured in-between our weather recording intervals... More about our weather records

Advertising

Kinshasa Weather History for the Previous 24 Hours

Scroll right to see more
 ConditionsComfort  
Time TempWeatherWind HumidityBarometerVisibility
2:00 pm
Sun, Jan 22
91 °FScattered clouds.8 mph56%29.77 "HgN/A
1:00 pm90 °FScattered clouds.2 mph63%29.83 "HgN/A
12:00 pm88 °FPartly sunny.5 mph62%29.86 "HgN/A
11:00 am88 °FPartly sunny.6 mph62%29.89 "HgN/A
10:00 am84 °FPartly sunny.No wind70%29.89 "HgN/A
9:00 am82 °FScattered clouds.5 mph74%29.92 "HgN/A
8:00 am79 °FScattered clouds.No wind84%29.89 "HgN/A
7:00 am77 °FScattered clouds.No wind89%29.89 "HgN/A
6:00 am77 °FPartly sunny.3 mph89%29.86 "HgN/A
5:00 am77 °FClear.No wind89%29.86 "Hg5 mi
4:00 am77 °FClear.No wind89%29.86 "Hg5 mi
3:00 am77 °FClear.No wind89%29.83 "Hg5 mi
2:00 am77 °FClear.No wind89%29.83 "Hg5 mi
1:00 am79 °FClear.No wind84%29.83 "Hg5 mi
12:00 am79 °FClear.No wind84%29.86 "Hg5 mi
11:00 pm
Sat, Jan 21
79 °FPassing clouds.No wind84%29.86 "Hg5 mi
10:00 pm81 °FPassing clouds.No wind79%29.83 "Hg5 mi
9:00 pm81 °FPassing clouds.No wind79%29.83 "Hg5 mi
8:00 pm82 °FPassing clouds.No wind74%29.83 "Hg5 mi
7:00 pm84 °FPassing clouds.7 mph70%29.80 "HgN/A
6:00 pm86 °FPassing clouds.6 mph66%29.80 "HgN/A
5:00 pm88 °FPassing clouds.6 mph62%29.77 "HgN/A
4:00 pm88 °FScattered clouds.6 mph62%29.77 "HgN/A
3:00 pm88 °FPartly sunny.7 mph62%29.77 "HgN/A
Weather by CustomWeather, © 2017

See weather overviewHow to use our weather pages